Flag for Canada Weather past 2 weeks in Edmundston, New Brunswick, Canada

Now
22 °F

Cold.


Feels Like: 22 °F
Forecast: 13 / 22 °F
Wind: 2 mph from South

Location: St Leonard

Current Time: Dec 21, 2014 at 1:02:38 PM

Latest Report: Dec 21, 2014 at 12:00 PM


Visibility: N/A

Pressure: 30.39 "Hg

Humidity: 89%

Dew point: 19 °F

Location of EdmundstonLocation

Historic Weather in Edmundston — Graph

°F

Edmundston temperature yesterday

Maximum temperature yesterday: 20 °F (at 2:00 PM)
Minimum temperature yesterday: 1 °F (at 5:00 AM)
Average temperature yesterday: 12 °F

Past Weeks' High & Low Weather Summary

 TemperatureHumidityPressure
High40 °F (Dec 11, 3:00 PM)100% (Dec 6, 4:00 PM)30.86 "Hg (Dec 6, 4:00 PM)
Low-14 °F (Dec 8, 8:00 AM)59% (Dec 7, 3:00 PM)29.56 "Hg (Dec 18, 2:00 PM)
Average24 °F93%30.07 "Hg
* Reported Dec 6 11:00 AM — Dec 21 11:00 AM, Edmundston, Weather by CustomWeather, © 2014

Note: Actual official high and low records may vary slightly from our data, if they occured in-between our weather recording intervals... More about our weather records

Advertising

Edmundston weather history for previous 24 hours

 ConditionsComfort  
Time TempWeatherWind HumidityBarometerVisibility
11:00 AM
Dec 21
21 °FCold.2 mph91%30.40 "HgN/A
10:00 AM20 °FCold.2 mph93%30.40 "HgN/A
9:00 AM19 °FCold.1 mph96%30.39 "HgN/A
8:00 AM17 °FCold.No wind96%30.39 "HgN/A
7:00 AM17 °FCold.No wind96%30.39 "HgN/A
6:00 AM17 °FCold.No wind96%30.39 "HgN/A
5:00 AM17 °FCold.No wind96%30.38 "HgN/A
4:00 AM17 °FCold.No wind96%30.39 "HgN/A
3:00 AM16 °FCold.No wind97%30.40 "HgN/A
2:00 AM16 °FCold.No wind97%30.39 "HgN/A
1:00 AM16 °FCold.No wind97%30.39 "HgN/A
12:00 AM16 °FCold.1 mph96%30.39 "HgN/A
11:00 PM
Dec 20
15 °FCold.No wind96%30.39 "HgN/A
10:00 PM15 °FCold.No wind96%30.40 "HgN/A
9:00 PM15 °FCold.No wind95%30.41 "HgN/A
8:00 PM15 °FCold.No wind95%30.41 "HgN/A
7:00 PM16 °FCold.1 mph93%30.40 "HgN/A
6:00 PM16 °FCold.No wind93%30.40 "HgN/A
5:00 PM16 °FCold.1 mph90%30.39 "HgN/A
4:00 PM16 °FCold.No wind88%30.39 "HgN/A
3:00 PM17 °FCold.2 mph85%30.38 "HgN/A
2:00 PM20 °FCold.5 mph75%30.37 "HgN/A
1:00 PM19 °FCold.3 mph83%30.37 "HgN/A
Weather by CustomWeather, © 2014

See weather overviewHow to use our weather pages